Regional Weather Roundup
Issued by NWS

Home | Current Version | Previous Version | Graphics & Text | Print | Product List | Glossary On
Versions: 1 2 3 4 5 6 7 8 9 10 11 12 13 14 15 16 17 18 19 20 21 22 23 24 25 26 27 28 29 30 31 32 33 34 35 36 37 38 39 40 41 42 43 44 45 46 47 48 49 50
000
ASUS43 KMPX 171010
RWRMN
WEATHER ROUNDUP FOR MINNESOTA
NATIONAL WEATHER SERVICE TWIN CITIES/CHANHASSEN MN
400 AM CST WED DEC 17 2014


NOTE: "FAIR" INDICATES FEW OR NO CLOUDS BELOW 12,000 FEET WITH NO
SIGNIFICANT WEATHER AND/OR OBSTRUCTIONS TO VISIBILITY. N/A MEANS
CURRENT SKY AND/OR WEATHER CONDITIONS ARE NOT AVAILABLE.

MNZ060>063-068>070-171100-
   Twin Cities Metro

CITY           SKY/WX    TMP DP  RH WIND       PRES   REMARKS
TWIN CITIES    PTCLDY    10   6  84 NW8       30.28S WCI  -2
ST PAUL        PTCLDY    12   7  80 NW9       30.30S WCI   0
CRYSTAL        CLEAR     11   6  81 W6        30.27S WCI   1
BLAINE         CLEAR     10   9  92 W6        30.27S WCI   1
LAKEVILLE      CLEAR      9   7  92 W8        30.27S WCI  -4
EDEN PRAIRIE   CLEAR     11   6  81 NW10      30.28S WCI  -3
SOUTH ST PAUL  PTCLDY    13   9  84 NW5       30.29R WCI   5
LAKE ELMO      FLURRIES  12   9  85 NW8       30.27S WCI   1
$$
MNZ001>005-007-008-013>017-022>024-027-028-171100-
   Northwest Minnesota

CITY           SKY/WX    TMP DP  RH WIND       PRES   REMARKS
BEMIDJI        FLURRIES  10   8  89 NW7       30.27S WCI  -1
HALLOCK        PTCLDY     1  -2  85 CALM      30.38S
ROSEAU         PTCLDY     3  -2  78 CALM      30.34F
WARROAD        MOCLDY     3   0  85 NW6       30.33S WCI  -8
THIEF RVR FALL PTCLDY     3   0  85 NW6       30.34S WCI  -8
CROOKSTON      MOCLDY     3   0  85 N7        30.38S WCI  -9
FOSSTON        PTCLDY     1  -2  85 CALM      30.32S
DETROIT LAKES  PTCLDY     3   1  92 N6        30.31R WCI  -8
MOORHEAD       MIX PCPN   3   3 100 N3        30.37S
PARK RAPIDS    MOCLDY     6   2  83 NW6       30.26S WCI  -4
MAHNOMEN       FAIR       2  -1  85 NW3       30.31S
$$
MNZ006-009>011-018-025>026-171100-
   North Central Minnesota

CITY           SKY/WX    TMP DP  RH WIND       PRES   REMARKS
BAUDETTE       CLOUDY    11   7  84 NW10      30.29F WCI  -3
FLAG ISLAND    CLOUDY     9   7  92 N8        30.32S WCI  -4
INTL FALLS     CLOUDY    12   7  80 N7        30.26S WCI   1
WASKISH        CLOUDY    10   9  92 CALM      30.29S
BIG FORK       LGT SNOW  12   9  85 NW5       30.25S WCI   4
LONGVILLE      LGT SNOW  10   9  92 NW3       30.25F
GRAND RAPIDS   CLOUDY    10   7  85 NW8       30.22S WCI  -1
CRANE LAKE     FLURRIES  10   9  92 N5        30.26S WCI   2
ORR            FLURRIES  10   7  85 NW3       30.21R
COOK           LGT SNOW  10   9  92 NW3       30.22S
WALKER         FLURRIES  11   8  87 NW5       30.26S WCI   3
$$
MNZ012-019>021-037-171100-
   Northeast Minnesota

CITY           SKY/WX    TMP DP  RH WIND       PRES   REMARKS
DULUTH         LGT SNOW  12   7  80 NW10      30.17S WCI  -1
ELY            LGT SNOW  10   7  85 NW6       30.18S WCI   1
HIBBING        CLOUDY    11   5  77 NW10      30.21S WCI  -3
EVELETH        LGT SNOW  12   9  85 N6        30.21S WCI   3
DULUTH HARBOR  CLOUDY    16  12  86 W9        30.25S WCI   4
TWO HARBORS    CLOUDY    18  10  73 NW2       30.17S
SILVER BAY     LGT SNOW  16   9  73 CALM      30.16S
GRAND MARAIS     N/A     16   8  71 N9G18     30.18R WCI   4
G MARAIS ARPRT LGT SNOW   9   3  78 NW8G16    30.09S WCI  -4
$$
MNZ029>031-032-039>041-046>048-054>057-064-171100-
   West Central Minnesota

CITY           SKY/WX    TMP DP  RH WIND       PRES   REMARKS
FERGUS FALLS   PTCLDY     3   0  85 N5        30.36S WCI  -6
WHEATON        FLURRIES   3   1  92 W8        30.37F WCI -10
MORRIS         LGT SNOW   7   5  92 NW13      30.32S WCI  -9
ALEXANDRIA     PTCLDY     7   4  87 NW7       30.28S WCI  -5
ELBOW LAKE     FAIR       2  -1  88 NW5       30.32R WCI  -8
WADENA         FLURRIES   9   5  85 NW6       30.28S WCI  -1
GLENWOOD       CLEAR      5   1  85 NW6       30.29S WCI  -6
APPLETON       CLEAR      9   3  78 N5        30.34S WCI   0
BENSON         PTCLDY     5   1  85 NW5       30.32S WCI  -4
ORTONVILLE     PTCLDY     7   3  85 N12       30.34R WCI  -9
MADISON        FLURRIES  10   9  92 NW5       30.35F WCI   2
WILLMAR        FAIR       9   5  85 NW8       30.32S WCI  -4
$$
MNZ033>034-036-042>043-049>051-058-059-171100-
   Central Minnesota

CITY           SKY/WX    TMP DP  RH WIND       PRES   REMARKS
ST CLOUD       PTCLDY    10   4  76 NW8       30.28S WCI  -2
SAUK CENTRE    FAIR       4   1  88 W3        30.29S
PAYNESVILLE    CLEAR      4   3  92 W6        30.30S WCI  -6
AITKIN         LGT SNOW  16   9  73 CALM      30.23S
PINE RIVER     FLURRIES  12   9  85 NW5       30.28S WCI   4
BRAINERD       CLOUDY    11   7  84 NW7       30.27R WCI   0
STAPLES        CLOUDY     9   7  92 W7        30.27S WCI  -3
LONG PRAIRIE   CLOUDY     9   5  85 NW6       30.27F WCI  -1
LITTLE FALLS   CLOUDY    10   5  79 NW3       30.28F
LITCHFIELD     CLEAR      9   7  92 NW7       30.30S WCI  -3
BUFFALO        CLEAR      9   6  85 W6        30.30S WCI   0
MAPLE LAKE     CLEAR     10   7  89 NW9       30.29S WCI  -4
$$
MNZ037-044-045-052-053-171100-
   East Central Minnesota

CITY           SKY/WX    TMP DP  RH WIND       PRES   REMARKS
PRINCETON      CLOUDY    12   9  85 NW6       30.26S WCI   3
MORA           CLOUDY    14   9  79 NW6       30.27S WCI   5
CAMBRIDGE      FLURRIES  14   7  73 W5        30.24F WCI   6
RUSH CITY      CLOUDY    15   9  78 NW7       30.25S WCI   5
MOOSE LAKE     CLOUDY    12   9  85 NW5       30.22S WCI   4
HINCKLEY       LGT SNOW  18  12  79 N3        30.25S
CLOQUET        LGT SNOW  12   9  85 NW9       30.20S WCI   0
MCGREGOR       CLOUDY    14  10  85 NW6       30.24S WCI   5
$$
MNZ071>073-080-081-089-090-097-098-171100-
   Southwest Minnesota

CITY           SKY/WX    TMP DP  RH WIND       PRES   REMARKS
MONTEVIDEO     CLEAR      7   7 100 NW3       30.35R
GRANITE FALLS  MOCLDY     9   6  89 NW9       30.35S WCI  -5
CANBY          PTCLDY     8   6  92 NW7       30.34F WCI  -3
MARSHALL       CLOUDY     9   3  78 NW6       30.32F WCI  -1
REDWOOD FALLS  CLEAR      7   4  87 W8        30.33S WCI  -6
OLIVIA         FLURRIES   9   5  85 NW6       30.31S WCI  -1
PIPESTONE      PTCLDY     7   3  85 CALM      30.30S
WINDOM         LGT SNOW  10   9  92 NW9       30.30F WCI  -2
WORTHINGTON    PTCLDY     7   3  85 NW8       30.30S WCI  -6
JACKSON        CLEAR     12   9  85 NW13      30.30S WCI  -3
TRACY          FLURRIES  11   8  89 NW3       30.32S
SLAYTON        FLURRIES   8   7  93 CALM      30.30F
$$
MNZ065>067-074>077-082>085-091>093-171100-
   South Central Minnesota

CITY           SKY/WX    TMP DP  RH WIND       PRES   REMARKS
MANKATO        CLEAR      9   3  78 W7        30.30R WCI  -3
NEW ULM        CLEAR      9   7  92 W8        30.31S WCI  -4
ST JAMES       CLEAR     10   7  85 W9        30.33S WCI  -2
FAIRMONT       PTCLDY    10   7  85 NW9       30.30S WCI  -2
GLENCOE        CLEAR     10   8  89 NW9       30.29S WCI  -2
FARIBAULT      CLEAR     10   7  85 W5        30.28R WCI   2
OWATONNA       FLURRIES  10   7  85 W8        30.27R WCI  -1
WASECA         CLEAR     10   7  85 W8        30.29S WCI  -1
ALBERT LEA     CLOUDY    10  10 100 W7        30.28R WCI   0
$$
MNZ078>079-086>088-094>096-171100-
   Southeast Minnesota

CITY           SKY/WX    TMP DP  RH WIND       PRES   REMARKS
ROCHESTER      CLOUDY    15  12  88 W12       30.23S WCI   2
RED WING       LGT SNOW  19  14  79 NW6       30.25S WCI  11
STANTON        CLOUDY    14   9  82 NW9       30.26S WCI   2
DODGE CENTER   LGT SNOW  12  12 100 CALM      30.23S
WINONA         CLOUDY    23  18  80 W8        30.25S WCI  14
AUSTIN         FLURRIES  10   9  92 W9        30.26S WCI  -2
PRESTON        CLOUDY    16  13  90 W12       30.23S WCI   3
$$
ABBREVIATIONS USED IN REMARKS
   TC - TEMPERATURES IN CELSIUS
  WCI - WIND CHILL INDEX
   HX - HEAT INDEX
  VSB - VISIBILITY
$$



USA.gov is the U.S. government's official web portal to all federal, state and local government web resources and services.